timestamp,surface_pressure_avg,surface_temp_avg,battery_voltage,lat,long
2022-03-19 00:09:01+00:00,370.7612,1.29,11.77,47.84626,-54.09684
2022-03-19 00:19:00+00:00,371.043,1.3,11.77,47.84626,-54.09684
2022-03-19 00:29:00+00:00,367.1046,1.3,11.77,47.84626,-54.09684
2022-03-19 00:39:00+00:00,365.8913,1.3,11.77,47.84626,-54.09684
2022-03-19 00:49:00+00:00,368.6729,1.3,11.77,47.84626,-54.09684
2022-03-19 00:59:00+00:00,365.6678,1.25,11.77,47.84626,-54.09684
2022-03-19 01:09:00+00:00,359.75300000000016,1.2,11.77,47.84626,-54.09684
2022-03-19 01:19:00+00:00,358.3679,1.26,11.77,47.84626,-54.09684
2022-03-19 01:29:00+00:00,354.4814,1.27,11.77,47.84626,-54.09684
2022-03-19 01:39:00+00:00,346.1896,1.29,11.77,47.84626,-54.09684
2022-03-19 01:49:00+00:00,342.9647,1.29,11.77,47.84626,-54.09684
2022-03-19 01:59:00+00:00,343.0179,1.29,11.77,47.84626,-54.09684
2022-03-19 02:09:00+00:00,339.2963,1.3,11.77,47.84626,-54.09684
2022-03-19 02:19:01+00:00,330.048,1.3,11.77,47.84626,-54.09684
2022-03-19 02:29:01+00:00,324.9864,1.3,11.77,47.84626,-54.09684
2022-03-19 02:39:01+00:00,318.258,1.3,11.77,47.84626,-54.09684
2022-03-19 02:49:01+00:00,305.3597,1.3,11.77,47.84626,-54.09684
2022-03-19 02:59:01+00:00,299.9063,1.3,11.77,47.84626,-54.09684
2022-03-19 03:09:01+00:00,296.0764,1.28,11.77,47.84626,-54.09684
2022-03-19 03:19:01+00:00,287.3814,1.29,11.77,47.84626,-54.09684
2022-03-19 03:29:01+00:00,275.233,1.3,11.77,47.84626,-54.09684
2022-03-19 03:39:01+00:00,269.2664,1.3,11.77,47.84626,-54.09684
2022-03-19 03:49:01+00:00,262.4231,1.29,11.77,47.84626,-54.09684
2022-03-19 03:59:01+00:00,252.1864,1.29,11.77,47.84626,-54.09684
2022-03-19 04:09:01+00:00,244.8481,1.29,11.77,47.84626,-54.09684
2022-03-19 04:19:00+00:00,237.7231,1.28,11.7,47.84626,-54.09684
2022-03-19 04:29:00+00:00,228.5964,1.26,11.7,47.84626,-54.09684
2022-03-19 04:39:00+00:00,219.0715,1.26,11.7,47.84626,-54.09684
2022-03-19 04:49:00+00:00,212.8914,1.25,11.7,47.84626,-54.09684
2022-03-19 04:59:00+00:00,205.6647,1.25,11.7,47.84626,-54.09684
2022-03-19 05:09:00+00:00,197.0148,1.27,11.7,47.84626,-54.09684
2022-03-19 05:19:00+00:00,193.2531,1.27,11.7,47.84626,-54.09684
2022-03-19 05:29:00+00:00,188.0915,1.29,11.7,47.84626,-54.09684
2022-03-19 05:39:00+00:00,182.6065,1.28,11.7,47.84626,-54.09684
2022-03-19 05:49:00+00:00,179.9082,1.3,11.7,47.84626,-54.09684
2022-03-19 05:59:00+00:00,178.5764,1.3,11.7,47.84626,-54.09684
2022-03-19 06:09:00+00:00,174.2965,1.3,11.7,47.84626,-54.09684
2022-03-19 06:19:00+00:00,170.7115,1.3,11.7,47.84626,-54.09684
2022-03-19 06:29:00+00:00,174.3248,1.3,11.7,47.84626,-54.09684
2022-03-19 06:39:00+00:00,175.0165,1.3,11.7,47.84626,-54.09684
2022-03-19 06:49:00+00:00,173.2698,1.3,11.7,47.84626,-54.09684
2022-03-19 06:59:00+00:00,181.8365,1.3,11.7,47.84626,-54.09684
2022-03-19 07:09:00+00:00,188.4665,1.29,11.7,47.84626,-54.09684
2022-03-19 07:19:00+00:00,187.9915,1.26,11.7,47.84626,-54.09684
2022-03-19 07:29:00+00:00,189.0697,1.27,11.7,47.84626,-54.09684
2022-03-19 07:39:00+00:00,197.0948,1.2,11.7,47.84626,-54.09684
2022-03-19 07:49:00+00:00,202.6948,1.24,11.7,47.84626,-54.09684
2022-03-19 07:59:00+00:00,204.7731,1.27,11.7,47.84626,-54.09684
2022-03-19 08:09:00+00:00,212.9181,1.28,11.7,47.84626,-54.09684
2022-03-19 08:19:00+00:00,222.5081,1.28,11.7,47.84626,-54.09684
2022-03-19 08:29:00+00:00,228.7014,1.29,11.7,47.84626,-54.09684
2022-03-19 08:39:00+00:00,231.5681,1.3,11.7,47.84626,-54.09684
2022-03-19 08:49:00+00:00,236.2898,1.28,11.7,47.84626,-54.09684
2022-03-19 08:59:00+00:00,243.1447,1.24,11.7,47.84626,-54.09684
2022-03-19 09:09:00+00:00,246.893,1.2,11.7,47.84626,-54.09684
2022-03-19 09:19:00+00:00,253.1998,1.2,11.7,47.84626,-54.09684
2022-03-19 09:29:00+00:00,260.3547,1.2,11.7,47.84626,-54.09684
2022-03-19 09:39:00+00:00,264.2764,1.29,11.7,47.84626,-54.09684
2022-03-19 09:49:00+00:00,267.5264,1.3,11.7,47.84626,-54.09684
2022-03-19 09:59:00+00:00,278.523,1.31,11.7,47.84626,-54.09684
2022-03-19 10:09:00+00:00,285.7581,1.3,11.7,47.84626,-54.09684
2022-03-19 10:19:01+00:00,290.9847,1.28,11.7,47.84626,-54.09684
2022-03-19 10:29:01+00:00,298.7946,1.4,11.7,47.84626,-54.09684
2022-03-19 10:39:01+00:00,309.2479,1.4,11.7,47.84626,-54.09684
2022-03-19 10:49:01+00:00,310.2563,1.47,11.7,47.84626,-54.09684
2022-03-19 10:59:01+00:00,314.8947,1.54,11.7,47.84626,-54.09684
2022-03-19 11:09:01+00:00,323.3864,1.5,11.7,47.84626,-54.09684
2022-03-19 11:19:00+00:00,332.4347,1.48,11.7,47.84626,-54.09684
2022-03-19 11:29:00+00:00,338.6013,1.5,11.7,47.84626,-54.09684
2022-03-19 11:39:00+00:00,343.9046,1.54,11.7,47.84626,-54.09684
2022-03-19 11:49:00+00:00,349.6929,1.57,11.7,47.84626,-54.09684
2022-03-19 11:59:00+00:00,355.4713,1.58,11.7,47.84626,-54.09684
2022-03-19 12:09:00+00:00,360.7712,1.5,11.7,47.84626,-54.09684
2022-03-19 12:19:00+00:00,368.1063,1.52,11.7,47.84626,-54.09684
2022-03-19 12:29:00+00:00,372.12800000000004,1.5,11.7,47.84626,-54.09684
2022-03-19 12:39:00+00:00,371.593,1.5,11.7,47.84626,-54.09684
2022-03-19 12:49:00+00:00,371.7529,1.5,11.7,47.84626,-54.09684
2022-03-19 12:59:00+00:00,373.7947,1.5,11.7,47.84626,-54.09684
2022-03-19 13:09:00+00:00,374.2563,1.5,11.7,47.84626,-54.09684
2022-03-19 13:19:01+00:00,370.6162,1.5,11.7,47.84626,-54.09684
2022-03-19 13:29:01+00:00,369.4796,1.5,11.7,47.84626,-54.09684
2022-03-19 13:39:01+00:00,367.1746,1.5,11.7,47.84626,-54.09684
2022-03-19 13:49:01+00:00,362.283,1.5,11.7,47.84626,-54.09684
2022-03-19 13:59:01+00:00,357.1863,1.44,11.7,47.84626,-54.09684
2022-03-19 14:09:01+00:00,351.75800000000015,1.4,11.7,47.84626,-54.09684
2022-03-19 14:19:00+00:00,343.6113,1.4,11.7,47.84626,-54.09684
2022-03-19 14:29:00+00:00,336.4562,1.4,11.7,47.84626,-54.09684
2022-03-19 14:39:00+00:00,332.9263,1.4,11.7,47.84626,-54.09684
2022-03-19 14:49:00+00:00,323.168,1.4,11.7,47.84626,-54.09684
2022-03-19 14:59:00+00:00,309.1913,1.42,11.7,47.84626,-54.09684
2022-03-19 15:09:00+00:00,305.5314,1.42,11.7,47.84626,-54.09684
2022-03-19 15:19:00+00:00,300.0764,1.41,11.7,47.84626,-54.09684
2022-03-19 15:29:00+00:00,288.0314,1.41,11.7,47.84626,-54.09684
2022-03-19 15:39:00+00:00,274.2347,1.41,11.7,47.84626,-54.09684
2022-03-19 15:49:00+00:00,267.4164,1.5,11.7,47.84626,-54.09684
2022-03-19 15:59:00+00:00,258.8114,1.43,11.7,47.84626,-54.09684
2022-03-19 16:09:00+00:00,249.4931,1.49,11.7,47.84626,-54.09684
2022-03-19 16:19:00+00:00,243.2948,1.5,11.7,47.84626,-54.09684
2022-03-19 16:29:00+00:00,240.8481,1.5,11.7,47.84626,-54.09684
2022-03-19 16:39:00+00:00,233.5064,1.5,11.7,47.84626,-54.09684
2022-03-19 16:49:00+00:00,220.0531,1.5,11.7,47.84626,-54.09684
2022-03-19 16:59:00+00:00,215.5898,1.5,11.7,47.84626,-54.09684
2022-03-19 17:09:00+00:00,214.1397,1.5,11.7,47.84626,-54.09684
2022-03-19 17:19:00+00:00,201.0264,1.5,11.7,47.84626,-54.09684
2022-03-19 17:29:00+00:00,190.9048,1.6,11.7,47.84626,-54.09684
2022-03-19 17:39:00+00:00,189.0548,1.62,11.7,47.84626,-54.09684
2022-03-19 17:49:00+00:00,183.9548,1.63,11.7,47.84626,-54.09684
2022-03-19 17:59:00+00:00,179.5631,1.66,11.7,47.84626,-54.09684
2022-03-19 18:09:00+00:00,182.4582,1.7,11.7,47.84626,-54.09684
2022-03-19 18:19:01+00:00,182.9881,1.7,11.7,47.84626,-54.09684
2022-03-19 18:29:01+00:00,178.7615,1.7,11.7,47.84626,-54.09684
2022-03-19 18:39:01+00:00,179.8331,1.69,11.7,47.84626,-54.09684
2022-03-19 18:49:01+00:00,186.4232,1.63,11.7,47.84626,-54.09684
2022-03-19 18:59:01+00:00,190.4198,1.67,11.7,47.84626,-54.09684
2022-03-19 19:09:01+00:00,195.4514,1.77,11.7,47.84626,-54.09684
2022-03-19 19:19:01+00:00,199.6948,1.78,11.7,47.84626,-54.09684
2022-03-19 19:29:01+00:00,200.3931,1.7,11.7,47.84626,-54.09684
2022-03-19 19:39:01+00:00,203.7914,1.7,11.7,47.84626,-54.09684
2022-03-19 19:49:01+00:00,211.0747,1.7,11.7,47.84626,-54.09684
2022-03-19 19:59:01+00:00,214.0414,1.69,11.7,47.84626,-54.09684
2022-03-19 20:09:01+00:00,216.0548,1.69,11.7,47.84626,-54.09684
2022-03-19 20:19:01+00:00,222.7215,1.7,11.7,47.84626,-54.09684
2022-03-19 20:29:01+00:00,230.1965,1.7,11.7,47.84626,-54.09684
2022-03-19 20:39:01+00:00,236.8248,1.7,11.7,47.84626,-54.09684
2022-03-19 20:49:01+00:00,243.4131,1.7,11.7,47.84626,-54.09684
2022-03-19 20:59:01+00:00,251.9831,1.7,11.7,47.84626,-54.09684
2022-03-19 21:09:01+00:00,255.7314,1.7,11.7,47.84626,-54.09684
2022-03-19 21:19:01+00:00,258.1164,1.7,11.7,47.84626,-54.09684
2022-03-19 21:29:01+00:00,260.9864,1.7,11.7,47.84626,-54.09684
2022-03-19 21:39:01+00:00,268.5414,1.7,11.7,47.84626,-54.09684
2022-03-19 21:49:01+00:00,275.5297,1.7,11.7,47.84626,-54.09684
2022-03-19 21:59:01+00:00,281.2831,1.7,11.7,47.84626,-54.09684
2022-03-19 22:09:01+00:00,289.3264,1.72,11.7,47.84626,-54.09684
2022-03-19 22:19:00+00:00,300.6797,1.75,11.7,47.84626,-54.09684
2022-03-19 22:29:00+00:00,307.8113,1.77,11.7,47.84626,-54.09684
2022-03-19 22:39:00+00:00,315.9047,1.76,11.7,47.84626,-54.09684
2022-03-19 22:49:00+00:00,325.1247,1.75,11.7,47.84626,-54.09684
2022-03-19 22:59:00+00:00,335.7214,1.77,11.7,47.84626,-54.09684
2022-03-19 23:09:00+00:00,342.5146,1.79,11.7,47.84626,-54.09684
2022-03-19 23:19:01+00:00,351.1396,1.78,11.7,47.84626,-54.09684
2022-03-19 23:29:01+00:00,354.0264,1.78,11.7,47.84626,-54.09684
2022-03-19 23:39:01+00:00,354.2363,1.79,11.7,47.84626,-54.09684
2022-03-19 23:49:01+00:00,357.6363,1.79,11.7,47.84626,-54.09684
2022-03-19 23:59:01+00:00,369.0162,1.7,11.7,47.84626,-54.09684
